Content
SEND FEEDBACK

Daily
Averages
Monthly
Summary
United States of America

RIMROCK, ARIZONA


Home > North America > United States > Arizona
Elevation: 3830 feet     Latitude: 34 40N     Longitude: 111 43W

WEATHER
 
SELECT A DAY
Number of Records: 140,063;   Date Range: 1/4/95 - 11/24/14
 
SHARE

PRINT THIS DATA

[ ← Previous Day ]
WEATHER ALMANAC - JANUARY 17, 2014
[ Next Day → ]
[ °C ]   °F
Weather ElementAverageHighLow
Barometer30.25 in30.33 in (9:55 am)30.20 in (2:55 pm)
Wind Speed7.4 mph15 mph (7:15 pm)
Wind Gust20.7 mph (12:55 pm)
Weather ElementAverage
Visibility10 mi
Wind DirectionENE (74.9 °)

Weather ElementTotal
Precipitation---
Heating Degree Days65 (Base 65)
Averaged from 71 records on January 17, 2014
WEATHER CONDITIONS BREAKOUT
WIND DIRECTION BREAKOUT
WEATHER BY HOUR - JANUARY 17, 2014
[ °C ]   °F
Local TimeTemperatureDewpointHumidityBarometerVisibilityWind DirectionWind SpeedGust SpeedPrecipitationEventsConditions
12:35 AM0.0 °F0.0 °F30.26 in10.0 miNE (50°)5.8 mphClear
12:55 AM0.0 °F0.0 °F30.26 in10.0 miNE (50°)5.8 mphClear
1:15 AM0.0 °F0.0 °F30.26 in10.0 miNE (40°)9.2 mph17.3 mphClear
1:35 AM0.0 °F0.0 °F30.26 in10.0 miNNE (20°)3.5 mphClear
1:55 AM0.0 °F0.0 °F30.27 in10.0 miNorth (10°)4.6 mphClear
2:15 AM0.0 °F0.0 °F30.27 in10.0 miNE (50°)6.9 mphClear
2:35 AM0.0 °F0.0 °F30.28 in10.0 miENE (60°)6.9 mphClear
2:55 AM0.0 °F0.0 °F30.28 in10.0 miENE (60°)10.4 mph17.3 mphClear
3:15 AM0.0 °F0.0 °F30.28 in10.0 miENE (60°)12.7 mph18.4 mphClear
3:35 AM0.0 °F0.0 °F30.27 in10.0 miENE (70°)6.9 mphClear
3:55 AM0.0 °F0.0 °F30.27 in10.0 miENE (60°)9.2 mphClear
4:15 AM0.0 °F0.0 °F30.26 in10.0 miENE (60°)10.4 mphClear
4:35 AM0.0 °F0.0 °F30.26 in10.0 miENE (60°)9.2 mphClear
4:55 AM0.0 °F0.0 °F30.27 in10.0 miEast (80°)6.9 mphClear
5:15 AM0.0 °F0.0 °F30.27 in10.0 miEast (80°)6.9 mphClear
5:35 AM0.0 °F0.0 °F30.28 in10.0 miEast (100°)8.1 mphClear
5:55 AM0.0 °F0.0 °F30.29 in10.0 miEast (100°)6.9 mphClear
6:15 AM0.0 °F0.0 °F30.29 in10.0 miEast (80°)8.1 mphClear
6:35 AM0.0 °F0.0 °F30.29 in10.0 miENE (70°)6.9 mphClear
6:55 AM0.0 °F0.0 °F30.30 in10.0 miENE (60°)9.2 mphClear
7:15 AM0.0 °F0.0 °F30.30 in10.0 miNE (50°)9.2 mphClear
7:35 AM0.0 °F0.0 °F30.30 in10.0 miNE (40°)10.4 mphClear
7:55 AM0.0 °F0.0 °F30.31 in10.0 miNE (40°)10.4 mphClear
8:15 AM0.0 °F0.0 °F30.31 in10.0 miNE (50°)6.9 mphClear
8:35 AM0.0 °F0.0 °F30.31 in10.0 miENE (70°)6.9 mphClear
8:55 AM0.0 °F0.0 °F30.31 in10.0 miEast (90°)9.2 mphClear
9:15 AM0.0 °F0.0 °F30.31 in10.0 miEast (90°)9.2 mphClear
9:35 AM0.0 °F0.0 °F30.32 in10.0 miESE (120°)3.5 mphClear
9:55 AM0.0 °F0.0 °F30.33 in10.0 miSSE (160°)3.5 mphClear
10:15 AM0.0 °F0.0 °F30.33 in10.0 miSE (130°)4.6 mphClear
10:35 AM0.0 °F0.0 °F30.33 in10.0 miCalmClear
10:55 AM0.0 °F0.0 °F30.33 in10.0 miCalmClear
11:15 AM0.0 °F0.0 °F30.31 in10.0 miCalmClear
11:35 AM0.0 °F0.0 °F30.30 in10.0 miSouth (170°)3.5 mphClear
11:55 AM0.0 °F0.0 °F30.29 in10.0 miSE (140°)3.5 mphClear
12:15 PM0.0 °F0.0 °F30.27 in10.0 miNNE (20°)3.5 mphClear
12:35 PM0.0 °F0.0 °F30.26 in10.0 miCalmClear
12:55 PM0.0 °F0.0 °F30.24 in10.0 miNW (310°)6.9 mph20.7 mphClear
1:15 PM0.0 °F0.0 °F30.23 in10.0 miSW (220°)3.5 mphClear
1:35 PM0.0 °F0.0 °F30.23 in10.0 miSSW (200°)3.5 mphClear
1:55 PM0.0 °F0.0 °F30.22 in10.0 miSW (230°)3.5 mphClear
2:15 PM0.0 °F0.0 °F30.21 in10.0 miCalmClear
2:35 PM0.0 °F0.0 °F30.21 in10.0 miCalmClear
2:55 PM0.0 °F0.0 °F30.20 in10.0 miSE (130°)5.8 mphClear
3:15 PM0.0 °F0.0 °F30.20 in10.0 miESE (110°)8.1 mphClear
3:35 PM0.0 °F0.0 °F30.20 in10.0 miSSE (160°)6.9 mphClear
3:55 PM0.0 °F0.0 °F30.20 in10.0 miSE (130°)4.6 mphClear
4:15 PM0.0 °F0.0 °F30.20 in10.0 miCalmClear
4:35 PM0.0 °F0.0 °F30.20 in10.0 miEast (100°)9.2 mphClear
4:55 PM0.0 °F0.0 °F30.20 in10.0 miENE (70°)3.5 mphClear
5:15 PM0.0 °F0.0 °F30.20 in10.0 miENE (70°)5.8 mphClear
5:35 PM0.0 °F0.0 °F30.20 in10.0 miEast (90°)6.9 mphClear
5:55 PM0.0 °F0.0 °F30.20 in10.0 miEast (90°)8.1 mphClear
6:15 PM0.0 °F0.0 °F30.20 in10.0 miENE (70°)8.1 mphClear
6:35 PM0.0 °F0.0 °F30.20 in10.0 miENE (70°)9.2 mphClear
6:55 PM0.0 °F0.0 °F30.20 in10.0 miENE (60°)12.7 mph16.1 mphClear
7:15 PM0.0 °F0.0 °F30.20 in10.0 miENE (60°)15.0 mph20.7 mphClear
7:35 PM0.0 °F0.0 °F30.20 in10.0 miENE (60°)15.0 mphClear
7:55 PM0.0 °F0.0 °F30.20 in10.0 miENE (60°)10.4 mph17.3 mphClear
8:15 PM0.0 °F0.0 °F30.20 in10.0 miENE (60°)11.5 mphClear
8:35 PM0.0 °F0.0 °F30.20 in10.0 miNE (50°)11.5 mphClear
8:55 PM0.0 °F0.0 °F30.20 in10.0 miENE (60°)13.8 mphClear
9:15 PM0.0 °F0.0 °F30.20 in10.0 miENE (60°)13.8 mph17.3 mphClear
9:35 PM0.0 °F0.0 °F30.20 in10.0 miNE (50°)11.5 mphClear
9:55 PM0.0 °F0.0 °F30.21 in10.0 miNE (50°)11.5 mphClear
10:15 PM0.0 °F0.0 °F30.21 in10.0 miENE (60°)11.5 mph17.3 mphClear
10:35 PM0.0 °F0.0 °F30.21 in10.0 miNE (50°)11.5 mphClear
10:55 PM0.0 °F0.0 °F30.21 in10.0 miNE (50°)12.7 mph17.3 mphClear
11:15 PM0.0 °F0.0 °F30.21 in10.0 miNE (50°)10.4 mphClear
11:35 PM0.0 °F0.0 °F30.21 in10.0 miNE (50°)12.7 mphClear
11:55 PM0.0 °F0.0 °F30.21 in10.0 miNE (50°)10.4 mphClear
Hourly data recorded from KSEZ, located miles away from Rimrock, Arizona







STORIES FROM OUR PARTNERS